Miscellaneous Local Product
Issued by NWS Hastings, NE

Home | Current Version | Previous Version | Graphics & Text | Print | Product List | Glossary On
Versions: 1 2 3 4 5 6 7 8 9 10 11 12 13 14 15 16 17 18 19 20 21 22 23 24 25 26 27 28 29 30 31 32 33 34 35 36 37 38 39 40 41 42 43 44 45 46 47 48 49 50
000
AXUS43 KGID 170702
MISGRI

GID CWA HOURLY WEATHER ROUNDUP
NATIONAL WEATHER SERVICE HASTINGS NE
200 AM CDT WED SEP 17 2014

NOTE: "FAIR" INDICATES FEW OR NO CLOUDS BELOW 12,000 FEET WITH NO
SIGNIFICANT WEATHER AND/OR OBSTRUCTIONS TO VISIBILITY.

...SOUTH CENTRAL NEBRASKA...

CITY           SKY/WX    TMP DP  RH WIND       PRES   REMARKS
GRAND ISLAND   CLEAR     57  50  77 S6        29.94F
HASTINGS       CLEAR     59  48  67 S12       29.93F
KEARNEY        CLEAR     55  48  76 SE5       29.95F
ORD            CLEAR     48  47  96 CALM      29.95S
YORK           CLEAR     55  52  88 S5        29.95F
LEXINGTON      CLEAR     52  51  95 NE3       29.95F FOG
HOLDREGE       CLEAR     53  49  89 CALM      29.93F
HEBRON         CLEAR     55  51  87 CALM      29.96S

...NEBRASKA PANHANDLE...

CITY           SKY/WX    TMP DP  RH WIND       PRES   REMARKS
CHADRON        MOCLDY    56  51  84 CALM      29.97S
ALLIANCE       CLEAR     50  45  83 NE8       30.00S
SCOTTSBLUFF    PTCLDY    57  47  69 E3        30.01S
SIDNEY         CLEAR     53  47  79 SW8       30.04F

...WESTERN AND NORTH CENTRAL NEBRASKA...

CITY           SKY/WX    TMP DP  RH WIND       PRES   REMARKS
VALENTINE      CLEAR     51  49  92 W6        29.95S
ONEILL         CLEAR     53  53  99 S6        29.95S
BROKEN BOW     FOG       47  46  97 CALM      29.96S VSB 1/2
IMPERIAL       CLEAR     55  53  93 CALM      29.98F FOG
NORTH PLATTE   FOG       50  50 100 CALM      29.97S VSB 1/2
MCCOOK         CLEAR     55  53  93 N5        29.96S FOG

...EASTERN NEBRASKA...

CITY           SKY/WX    TMP DP  RH WIND       PRES   REMARKS
NORFOLK        CLEAR     51  49  92 CALM      29.95F
SO SIOUX CITY  CLOUDY    58  53  84 SE5       29.97F
TEKAMAH        CLOUDY    59  53  80 SE3       29.97F
ALBION         CLEAR     51  48  89 CALM      29.96R
OMAHA EPPLEY   CLOUDY    63  52  67 S8        29.98S
OFFUTT AFB     CLOUDY    60  60  98 SE6       29.97F
MILLARD        CLOUDY    62  54  75 SE5       29.97F
LINCOLN        MOCLDY    61  53  75 SE8       29.97F
NEBRASKA CITY  CLOUDY    60  51  71 S5        29.98S
BEATRICE       CLOUDY    63  54  74 SE6       29.96F
FALLS CITY     CLOUDY    62  55  77 SE5       29.97F

...NORTHERN KANSAS...

CITY           SKY/WX    TMP DP  RH WIND       PRES   REMARKS
GOODLAND       CLEAR     57  51  80 W7        30.00F
HILL CITY      CLEAR     57  56  96 CALM      29.93F
NORTON         SUNNY     55  52  88 CALM      29.93S
PHILLIPSBURG   CLEAR     59  55  88 NE7       29.93F
SMITH CENTER   CLEAR     57  54  88 E12       29.93F
BELOIT         PTCLDY    63  57  82 E6        29.92F
HAYS           CLEAR     63  57  82 SE5       29.93F
RUSSELL        CLEAR     65  62  90 S14       29.92F
CONCORDIA      PTCLDY    58  56  93 CALM      29.95F
SALINA         CLEAR     67  64  90 S10       29.94F
TOPEKA         CLOUDY    65  61  87 SE6       29.99R



USA.gov is the U.S. government's official web portal to all federal, state and local government web resources and services.